| time (UTC) | temp F | wind direction | speed knots | gust knots | rain 1hr in | rain 24hr in | rain mn in | humidity % | barometer mb |
| 20260510115102 | 59 | 221 | 0.9 | 1.7 | 0.00 | 0.00 | 0.00 | 89 | 1013.5 |
| 20260510114059 | 55 | 216 | 0.9 | 0.9 | 0.00 | 0.00 | 0.00 | 99 | 1013.3 |
| 20260510113059 | 52 | 335 | 0.9 | 1.7 | 0.00 | 0.00 | 0.00 | 99 | 1013.1 |
| 20260510112057 | 50 | 222 | 0.9 | 0.9 | 0.00 | 0.00 | 0.00 | 99 | 1013.0 |
| 20260510111056 | 48 | 217 | 0.0 | 0.0 | 0.00 | 0.00 | 0.00 | 99 | 1012.7 |
| 20260510110054 | 48 | 198 | 0.0 | 0.0 | 0.00 | 0.00 | 0.00 | 99 | 1012.5 |
| 20260510105051 | 47 | 218 | 0.0 | 0.0 | 0.00 | 0.00 | 0.00 | 99 | 1012.5 |
| 20260510104050 | 47 | 211 | 0.0 | 0.0 | 0.00 | 0.00 | 0.00 | 99 | 1012.4 |
| 20260510103049 | 46 | 241 | 0.9 | 1.7 | 0.00 | 0.00 | 0.00 | 99 | 1012.1 |
| 20260510102047 | 45 | 239 | 0.9 | 0.9 | 0.00 | 0.00 | 0.00 | 99 | 1012.3 |
| 20260510101043 | 45 | 219 | 0.0 | 0.0 | 0.00 | 0.00 | 0.00 | 99 | 1011.8 |
| 20260510100042 | 45 | 220 | 0.0 | 0.0 | 0.00 | 0.00 | 0.00 | 99 | 1011.7 |
| 20260510095037 | 45 | 213 | 0.0 | 0.0 | 0.00 | 0.00 | 0.00 | 99 | 1011.9 |
| 20260510094034 | 45 | 220 | 0.0 | 0.0 | 0.00 | 0.00 | 0.00 | 99 | 1011.7 |
| 20260510093032 | 45 | 221 | 0.0 | 0.0 | 0.00 | 0.00 | 0.00 | 99 | 1011.7 |
| 20260510092029 | 45 | 222 | 0.0 | 0.0 | 0.00 | 0.00 | 0.00 | 99 | 1011.8 |
| 20260510091028 | 45 | 218 | 0.0 | 0.0 | 0.00 | 0.00 | 0.00 | 99 | 1011.7 |
| 20260510090026 | 46 | 219 | 0.0 | 0.0 | 0.00 | 0.00 | 0.00 | 99 | 1011.6 |
| 20260510085022 | 46 | 219 | 0.0 | 0.0 | 0.00 | 0.00 | 0.00 | 99 | 1011.8 |
| 20260510084022 | 47 | 225 | 0.0 | 0.9 | 0.00 | 0.00 | 0.00 | 99 | 1011.5 |
| 20260510083021 | 46 | 227 | 0.0 | 0.9 | 0.00 | 0.00 | 0.00 | 99 | 1011.7 |
| 20260510082018 | 46 | 221 | 0.0 | 0.0 | 0.00 | 0.00 | 0.00 | 99 | 1011.9 |
| 20260510081015 | 47 | 243 | 0.0 | 0.0 | 0.00 | 0.00 | 0.00 | 99 | 1011.6 |
| 20260510080012 | 47 | 220 | 0.0 | 0.0 | 0.00 | 0.00 | 0.00 | 99 | 1011.1 |
| 20260510075011 | 47 | 223 | 0.0 | 0.0 | 0.00 | 0.00 | 0.00 | 99 | 1011.1 |
| 20260510074010 | 47 | 263 | 0.9 | 0.9 | 0.00 | 0.00 | 0.00 | 99 | 1010.8 |
| 20260510073009 | 48 | 223 | 0.0 | 0.9 | 0.00 | 0.00 | 0.00 | 99 | 1011.1 |
| 20260510072007 | 46 | 212 | 0.0 | 0.0 | 0.00 | 0.00 | 0.00 | 99 | 1011.0 |
| 20260510071002 | 48 | 212 | 0.0 | 0.0 | 0.00 | 0.00 | 0.00 | 98 | 1010.7 |
| 20260510070000 | 49 | 220 | 0.0 | 0.0 | 0.00 | 0.00 | 0.00 | 99 | 1010.6 |
| 20260510065000 | 49 | 221 | 0.0 | 0.0 | 0.00 | 0.00 | 0.00 | 99 | 1010.7 |
| 20260510063959 | 49 | 225 | 0.0 | 0.9 | 0.00 | 0.00 | 0.00 | 98 | 1010.6 |
| 20260510062959 | 49 | 219 | 0.0 | 0.0 | 0.00 | 0.00 | 0.00 | 98 | 1010.7 |
| 20260510061955 | 49 | 228 | 0.9 | 0.9 | 0.00 | 0.00 | 0.00 | 98 | 1010.5 |
| 20260510060954 | 49 | 236 | 0.9 | 1.7 | 0.00 | 0.00 | 0.00 | 98 | 1010.5 |
| 20260510055953 | 49 | 212 | 0.0 | 0.0 | 0.00 | 0.00 | 0.00 | 98 | 1010.5 |
| 20260510054954 | 49 | 209 | 0.0 | 0.0 | 0.00 | 0.00 | 0.00 | 97 | 1010.5 |
| 20260510053950 | 50 | 221 | 0.0 | 0.0 | 0.00 | 0.00 | 0.00 | 96 | 1010.4 |
| 20260510052947 | 50 | 221 | 0.0 | 0.0 | 0.00 | 0.00 | 0.00 | 96 | 1010.5 |
| 20260510051946 | 50 | 238 | 0.9 | 0.9 | 0.00 | 0.00 | 0.00 | 96 | 1010.5 |
| 20260510050944 | 51 | 218 | 0.0 | 0.9 | 0.00 | 0.00 | 0.00 | 96 | 1010.5 |
| 20260510045945 | 50 | 226 | 0.0 | 0.0 | 0.00 | 0.00 | 0.00 | 96 | 1010.5 |
| 20260510044944 | 51 | 215 | 0.0 | 0.0 | 0.00 | 0.00 | 0.00 | 96 | 1010.6 |
| 20260510043944 | 51 | 216 | 0.0 | 0.0 | 0.00 | 0.00 | 0.00 | 96 | 1010.3 |
| 20260510042944 | 51 | 216 | 0.0 | 0.0 | 0.00 | 0.00 | 0.00 | 96 | 1010.6 |
| 20260510041941 | 51 | 215 | 0.0 | 0.0 | 0.00 | 0.00 | 0.00 | 96 | 1010.5 |
| 20260510040936 | 52 | 219 | 0.0 | 0.0 | 0.00 | 0.00 | 0.00 | 95 | 1010.2 |
| 20260510035933 | 52 | 218 | 0.0 | 0.0 | 0.00 | 0.00 | 0.00 | 95 | 1010.2 |
| 20260510034930 | 53 | 219 | 0.0 | 0.0 | 0.00 | 0.00 | 0.00 | 94 | 1010.5 |
| 20260510033925 | 53 | 233 | 0.9 | 0.9 | 0.00 | 0.00 | 0.00 | 94 | 1010.1 |
| 20260510032924 | 53 | 227 | 0.9 | 1.7 | 0.00 | 0.00 | 0.00 | 94 | 1010.2 |
| 20260510031922 | 53 | 225 | 0.9 | 0.9 | 0.00 | 0.00 | 0.00 | 93 | 1010.3 |
| 20260510030919 | 54 | 219 | 0.0 | 0.0 | 0.00 | 0.00 | 0.00 | 93 | 1010.3 |
| 20260510025913 | 54 | 211 | 0.0 | 0.0 | 0.00 | 0.00 | 0.00 | 93 | 1010.2 |
| 20260510024913 | 55 | 219 | 0.9 | 0.9 | 0.00 | 0.00 | 0.00 | 92 | 1010.2 |
| 20260510023910 | 55 | 222 | 0.0 | 0.0 | 0.00 | 0.00 | 0.00 | 92 | 1010.3 |
| 20260510022910 | 55 | 219 | 0.0 | 0.0 | 0.00 | 0.00 | 0.00 | 92 | 1010.1 |
| 20260510021908 | 55 | 229 | 0.0 | 0.0 | 0.00 | 0.00 | 0.00 | 91 | 1010.1 |
| 20260510020909 | 56 | 228 | 0.0 | 0.0 | 0.00 | 0.00 | 0.00 | 90 | 1009.9 |
| 20260510015905 | 57 | 217 | 0.0 | 0.0 | 0.00 | 0.00 | 0.00 | 90 | 1009.8 |
| 20260510014902 | 57 | 225 | 0.9 | 0.9 | 0.00 | 0.00 | 0.00 | 89 | 1009.7 |
| 20260510013902 | 58 | 219 | 0.0 | 0.0 | 0.00 | 0.00 | 0.00 | 87 | 1009.6 |
| 20260510012858 | 58 | 222 | 0.9 | 0.9 | 0.00 | 0.00 | 0.00 | 87 | 1009.2 |
| 20260510011854 | 59 | 215 | 0.0 | 0.0 | 0.00 | 0.00 | 0.00 | 85 | 1009.3 |
| 20260510010852 | 59 | 216 | 0.0 | 0.0 | 0.00 | 0.00 | 0.00 | 83 | 1009.1 |
| 20260510005851 | 60 | 225 | 0.0 | 0.9 | 0.00 | 0.00 | 0.00 | 81 | 1008.9 |
| 20260510004851 | 61 | 221 | 0.0 | 0.0 | 0.00 | 0.00 | 0.00 | 79 | 1008.7 |
| 20260510003847 | 62 | 215 | 0.0 | 0.0 | 0.00 | 0.00 | 0.00 | 78 | 1008.5 |
| 20260510002842 | 63 | 220 | 0.0 | 0.0 | 0.00 | 0.00 | 0.00 | 77 | 1008.6 |
| 20260510001842 | 65 | 215 | 0.0 | 0.0 | 0.00 | 0.00 | 0.00 | 72 | 1008.6 |
| 20260510000842 | 66 | 213 | 0.0 | 0.0 | 0.00 | 0.00 | 0.00 | 68 | 1008.7 |
| 20260509235841 | 68 | 215 | 0.0 | 0.0 | 0.00 | 0.00 | 0.00 | 64 | 1008.5 |
| 20260509234840 | 72 | 221 | 0.0 | 0.0 | 0.00 | 0.00 | 0.00 | 60 | 1008.5 |
| 20260509233836 | 74 | 221 | 0.0 | 0.0 | 0.00 | 0.00 | 0.00 | 55 | 1008.3 |
| 20260509232834 | 72 | 216 | 0.0 | 0.0 | 0.00 | 0.00 | 0.00 | 54 | 1008.1 |
| 20260509231834 | 76 | 199 | 0.0 | 0.0 | 0.00 | 0.00 | 0.00 | 48 | 1008.1 |
| 20260509230829 | 75 | 218 | 0.0 | 0.0 | 0.00 | 0.00 | 0.00 | 49 | 1008.1 |
| 20260509225826 | 77 | 212 | 0.0 | 0.0 | 0.00 | 0.00 | 0.00 | 47 | 1008.2 |
| 20260509224826 | 76 | 228 | 0.9 | 0.9 | 0.00 | 0.00 | 0.00 | 49 | 1008.0 |
| 20260509223825 | 74 | 216 | 0.0 | 0.0 | 0.00 | 0.00 | 0.00 | 53 | 1008.1 |
| 20260509222824 | 74 | 215 | 0.0 | 0.9 | 0.00 | 0.00 | 0.00 | 51 | 1008.1 |
| 20260509221821 | 74 | 258 | 0.9 | 1.7 | 0.00 | 0.00 | 0.00 | 53 | 1008.0 |
| 20260509220819 | 76 | 216 | 0.0 | 0.0 | 0.00 | 0.00 | 0.00 | 50 | 1008.0 |
| 20260509215817 | 75 | 271 | 1.7 | 1.7 | 0.00 | 0.00 | 0.00 | 51 | 1008.1 |
| 20260509214816 | 75 | 215 | 0.0 | 0.0 | 0.00 | 0.00 | 0.00 | 53 | 1008.3 |
| 20260509213816 | 76 | 237 | 1.7 | 1.7 | 0.00 | 0.00 | 0.00 | 51 | 1008.0 |
| 20260509212815 | 78 | 243 | 1.7 | 1.7 | 0.00 | 0.00 | 0.00 | 50 | 1007.9 |
| 20260509211814 | 76 | 228 | 0.0 | 0.9 | 0.00 | 0.00 | 0.00 | 52 | 1007.9 |
| 20260509210813 | 76 | 224 | 0.0 | 0.0 | 0.00 | 0.00 | 0.00 | 52 | 1007.9 |
| 20260509205810 | 75 | 263 | 3.5 | 5.2 | 0.00 | 0.00 | 0.00 | 52 | 1008.0 |
| 20260509204808 | 77 | 286 | 2.6 | 2.6 | 0.00 | 0.00 | 0.00 | 50 | 1007.9 |
| 20260509203806 | 76 | 217 | 0.0 | 0.9 | 0.00 | 0.00 | 0.00 | 50 | 1008.0 |
| 20260509202805 | 73 | 196 | 1.7 | 1.7 | 0.00 | 0.00 | 0.00 | 52 | 1008.1 |
| 20260509201800 | 76 | 176 | 1.7 | 2.6 | 0.00 | 0.00 | 0.00 | 50 | 1008.0 |
| 20260509200800 | 75 | 171 | 2.6 | 3.5 | 0.00 | 0.00 | 0.00 | 50 | 1007.9 |
| 20260509195758 | 74 | 216 | 0.9 | 1.7 | 0.00 | 0.00 | 0.00 | 59 | 1008.0 |
| 20260509194753 | 72 | 173 | 0.9 | 1.7 | 0.00 | 0.00 | 0.00 | 57 | 1008.3 |
| 20260509193752 | 71 | 171 | 0.9 | 3.5 | 0.00 | 0.00 | 0.00 | 58 | 1008.4 |
| 20260509192749 | 70 | 204 | 0.9 | 1.7 | 0.00 | 0.00 | 0.00 | 61 | 1008.6 |
| 20260509191745 | 70 | 137 | 1.7 | 2.6 | 0.00 | 0.00 | 0.00 | 63 | 1008.8 |
| 20260509190743 | 71 | 138 | 2.6 | 3.5 | 0.00 | 0.00 | 0.00 | 59 | 1008.8 |
| 20260509185743 | 74 | 181 | 0.9 | 0.9 | 0.00 | 0.00 | 0.00 | 62 | 1009.0 |
| 20260509184743 | 70 | 205 | 2.6 | 3.5 | 0.00 | 0.00 | 0.00 | 58 | 1009.2 |
| 20260509183742 | 72 | 264 | 3.5 | 6.1 | 0.00 | 0.00 | 0.00 | 57 | 1009.4 |
| 20260509182739 | 72 | 209 | 0.0 | 0.9 | 0.00 | 0.00 | 0.00 | 56 | 1009.5 |
| 20260509181740 | 71 | 166 | 0.9 | 1.7 | 0.00 | 0.00 | 0.00 | 58 | 1009.3 |
| 20260509180739 | 69 | 153 | 0.9 | 0.9 | 0.00 | 0.00 | 0.00 | 60 | 1009.6 |
| 20260509175738 | 70 | 225 | 0.0 | 0.9 | 0.00 | 0.00 | 0.00 | 61 | 1009.6 |
| 20260509174737 | 70 | 187 | 0.9 | 0.9 | 0.00 | 0.00 | 0.00 | 62 | 1010.3 |
| 20260509173734 | 71 | 262 | 0.9 | 0.9 | 0.00 | 0.00 | 0.00 | 59 | 1010.4 |
| 20260509172732 | 71 | 228 | 0.9 | 0.9 | 0.00 | 0.00 | 0.00 | 58 | 1010.5 |
| 20260509171730 | 71 | 242 | 0.0 | 0.9 | 0.00 | 0.00 | 0.00 | 60 | 1010.5 |
| 20260509170729 | 73 | 340 | 1.7 | 1.7 | 0.00 | 0.00 | 0.00 | 54 | 1010.2 |
| 20260509165729 | 71 | 277 | 0.9 | 1.7 | 0.00 | 0.00 | 0.00 | 60 | 1010.6 |
| 20260509164727 | 70 | 233 | 1.7 | 1.7 | 0.00 | 0.00 | 0.00 | 59 | 1010.3 |
| 20260509163726 | 68 | 199 | 0.9 | 1.7 | 0.00 | 0.00 | 0.00 | 61 | 1010.5 |
| 20260509162726 | 67 | 210 | 0.0 | 0.0 | 0.00 | 0.00 | 0.00 | 60 | 1010.7 |
| 20260509161723 | 68 | 166 | 1.7 | 1.7 | 0.00 | 0.00 | 0.00 | 58 | 1010.6 |
| 20260509160720 | 69 | 166 | 1.7 | 2.6 | 0.00 | 0.00 | 0.00 | 58 | 1010.7 |
| 20260509155718 | 70 | 218 | 0.9 | 0.9 | 0.00 | 0.00 | 0.00 | 62 | 1010.7 |
| 20260509154717 | 69 | 257 | 0.9 | 0.9 | 0.00 | 0.00 | 0.00 | 58 | 1010.8 |
| 20260509153717 | 67 | 297 | 1.7 | 2.6 | 0.00 | 0.00 | 0.00 | 60 | 1010.8 |
| 20260509152715 | 68 | 265 | 1.7 | 1.7 | 0.00 | 0.00 | 0.00 | 58 | 1010.8 |
| 20260509151715 | 66 | 206 | 0.0 | 0.9 | 0.00 | 0.00 | 0.00 | 63 | 1011.0 |
| 20260509150710 | 67 | 176 | 0.9 | 2.6 | 0.00 | 0.00 | 0.00 | 57 | 1011.1 |
| 20260509145710 | 65 | 191 | 0.9 | 1.7 | 0.00 | 0.00 | 0.00 | 61 | 1011.1 |
| 20260509144708 | 65 | 157 | 1.7 | 1.7 | 0.00 | 0.00 | 0.00 | 63 | 1010.9 |
| 20260509143702 | 67 | 138 | 0.9 | 0.9 | 0.00 | 0.00 | 0.00 | 59 | 1011.1 |
| 20260509142700 | 65 | 218 | 0.0 | 0.0 | 0.00 | 0.00 | 0.00 | 62 | 1011.5 |
| 20260509141658 | 64 | 160 | 2.6 | 3.5 | 0.00 | 0.00 | 0.00 | 62 | 1011.3 |
| 20260509140658 | 62 | 211 | 0.0 | 0.9 | 0.00 | 0.00 | 0.00 | 69 | 1011.5 |
| 20260509135653 | 62 | 185 | 0.0 | 0.0 | 0.00 | 0.00 | 0.00 | 67 | 1011.4 |
| 20260509134653 | 60 | 227 | 0.9 | 0.9 | 0.00 | 0.00 | 0.00 | 67 | 1011.3 |
| 20260509133648 | 59 | 218 | 0.0 | 0.0 | 0.00 | 0.00 | 0.00 | 65 | 1011.5 |
| 20260509132649 | 58 | 221 | 0.0 | 0.0 | 0.00 | 0.00 | 0.00 | 68 | 1011.4 |
| 20260509131648 | 58 | 229 | 0.0 | 0.0 | 0.00 | 0.00 | 0.00 | 68 | 1011.8 |
| 20260509130647 | 58 | 227 | 0.9 | 0.9 | 0.00 | 0.00 | 0.00 | 66 | 1011.7 |
| 20260509125646 | 58 | 229 | 0.9 | 0.9 | 0.00 | 0.00 | 0.00 | 67 | 1011.5 |
| 20260509124645 | 57 | 220 | 0.0 | 0.0 | 0.00 | 0.00 | 0.00 | 67 | 1011.4 |
| 20260509123640 | 56 | 217 | 0.0 | 0.9 | 0.00 | 0.00 | 0.00 | 68 | 1011.8 |
| 20260509122638 | 56 | 219 | 0.9 | 0.9 | 0.00 | 0.00 | 0.00 | 68 | 1011.5 |
| 20260509121637 | 56 | 151 | 0.9 | 1.7 | 0.00 | 0.00 | 0.00 | 69 | 1011.4 |